MDT,Max TemperatureF,Mean TemperatureF,Min TemperatureF,Max Dew PointF,MeanDew PointF,Min DewpointF,Max Humidity, Mean Humidity, Min Humidity, Max Sea Level PressureIn, Mean Sea Level PressureIn, Min Sea Level PressureIn, Max VisibilityMiles, Mean VisibilityMiles, Min VisibilityMiles, Max Wind SpeedMPH, Mean Wind SpeedMPH, Max Gust SpeedMPH,PrecipitationIn, CloudCover, Events, WindDirDegrees
2013-8-1,80,67,54,53,51,49,83,59,35,30.11,30.02,29.94,10,10,10,18,7,23,0.00,1,,79
2013-8-2,69,63,57,58,55,52,93,79,63,30.13,30.02,29.89,10,10,5,25,7,33,0.19,6,Rain-Thunderstorm,106
2013-8-3,78,66,54,58,55,53,93,67,42,30.17,30.12,30.06,10,10,10,24,12,32,0.24,2,Rain-Thunderstorm,119
2013-8-4,75,67,58,64,60,55,93,85,68,30.18,30.04,29.96,10,9,2,31,9,39,0.88,6,Rain-Thunderstorm,112
2013-8-5,83,67,50,60,55,51,100,81,37,30.01,29.95,29.81,10,6,0,39,4,48,0.04,1,Fog-Rain-Thunderstorm,288
2013-8-6,76,64,52,57,55,53,93,74,46,29.99,29.87,29.76,10,10,10,25,8,31,0.01,1,,304
2013-8-7,75,64,52,55,53,51,100,80,46,30.06,30.01,29.97,10,8,0,15,8,18,0.00,3,Fog,352
2013-8-8,75,63,50,56,52,48,93,72,46,30.11,30.07,30.03,10,10,10,9,6,10,0.00,3,,58
2013-8-9,76,65,54,54,51,49,93,67,44,30.20,30.16,30.11,10,10,8,14,7,20,T,3,,69
2013-8-10,73,63,52,61,55,49,93,79,64,30.18,30.12,30.03,10,10,6,29,9,36,0.09,3,Rain-Thunderstorm,117
2013-8-11,76,64,52,60,56,51,100,88,54,30.16,30.12,30.06,10,5,0,12,6,16,0.00,4,Fog,67
2013-8-12,79,66,53,62,57,51,93,74,52,30.13,30.10,30.08,10,10,10,12,7,15,0.00,1,,95
2013-8-13,71,63,55,62,56,50,87,78,66,30.21,30.16,30.09,10,10,2,20,7,26,0.07,4,Rain-Thunderstorm,105
2013-8-14,76,67,57,61,58,55,93,79,54,30.14,30.08,29.99,10,10,6,15,7,18,0.00,4,,140
2013-8-15,79,68,56,58,56,54,100,80,42,30.10,30.05,30.01,10,7,0,14,7,17,0.00,3,Fog,141
2013-8-16,82,67,51,61,55,52,100,81,39,30.10,30.06,30.00,10,6,0,17,9,22,0.00,1,Fog,150
2013-8-17,92,72,51,64,58,52,100,73,28,29.99,29.93,29.84,10,7,0,12,7,16,0.00,0,Fog,156
2013-8-18,89,72,54,63,58,53,93,67,34,29.95,29.90,29.87,10,9,5,20,6,23,0.00,0,,36
2013-8-19,95,73,51,65,54,50,100,56,23,29.93,29.86,29.80,10,10,10,17,6,24,0.00,0,,214
2013-8-20,96,73,50,62,54,48,93,56,22,29.86,29.81,29.78,10,10,6,16,5,22,0.00,0,,312
2013-8-21,84,67,49,61,54,48,93,58,37,30.10,30.01,29.87,10,10,10,21,10,25,0.00,0,,69
2013-8-22,82,71,59,57,50,45,69,52,36,30.20,30.11,30.01,10,10,10,18,12,25,0.00,3,,110
2013-8-23,90,77,64,66,63,54,93,65,38,29.99,29.84,29.73,10,10,10,13,12,16,0.00,0,,136
2013-8-24,94,79,64,67,60,55,87,59,30,29.86,29.77,29.70,10,10,8,14,6,22,0.00,1,,273
2013-8-25,93,75,56,61,58,53,86,56,32,29.97,29.92,29.86,10,10,10,9,7,13,0.00,0,Thunderstorm,73
2013-8-26,93,79,65,67,64,60,87,63,36,29.90,29.87,29.83,10,10,10,24,7,30,T,3,,109
2013-8-27,92,76,60,73,65,60,100,86,44,30.01,29.94,29.87,10,6,0,23,7,29,0.32,4,Fog-Rain-Thunderstorm,65
2013-8-28,89,75,61,68,64,61,100,80,44,30.03,29.96,29.87,10,6,0,17,8,24,0.01,2,Fog-Rain,90
2013-8-29,90,77,63,67,62,57,93,66,34,30.01,29.93,29.83,10,10,4,17,7,22,0.00,0,,3
2013-8-30,96,77,58,66,61,56,93,60,28,30.02,29.92,29.80,10,10,8,18,6,24,0.04,1,Thunderstorm,169
2013-8-31,82,66,50,58,48,39,93,55,23,30.04,29.91,29.81,10,10,10,25,12,37,0.01,0,,317